CZ-6A DEB, 56240

Orbit data source: Space-Track

CZ-6A DEB, 56240 is space debris in SSO originally from a launch on Fri, 11 Nov 2022 UTC launched from the Taiyaun Space Center, China (TSC). Debris objects in space refer to the collection of defunct objects orbiting the Earth. Examples of debris include non-operational satellites, rocket bodies, and fragments generated from explosions, collisions, or faulty payload assembly.

Loading next visibility...
Identifier
56240, 2022-151ABG
Orbit
SSO
Country
Flag of CNCN / PRC
Related business
Manufacturer
SAST
Mission
Spacecraft
Bus & Motor
Unknown
Mass
Unknown
Launch date (UTC)
2022-11-11 (4 years ago)
Launch vehicle
Unknown
Launch site
Taiyaun Space Center, China (TSC)
Object type
Payload
Rocket body
Debris
Shape & HBR
Unknown shape, 0.1 m
Radar Cross Section
Small (<0.1 m²)

Expand to show TLE details & history
Last TLE update: 2 days ago

TLE from 2 days ago
0 CZ-6A DEB
1 56240U 22151ABG 26171.23662713  .00015138  00000-0  17592-2 0  9999
2 56240  98.8118 282.1042 0066058 240.7716 118.6879 14.83879650179889
Epoch: 2026-06-20T05:40Z
TLE epoch observation values (Epoch: 2026-06-20T05:40:44.584Z)
Latitude
0.00002°
Longitude
-71.53571°
Altitude
642.523 km
Speed
7.525 km/s
True Right ascension
18h 48m 25s
True Declination
0° 00' 00"
Sunlit
Object was in full shadow at epoch
Visualization orbit readout
Latitude
Unknown
Longitude
Unknown
Altitude
Unknown
Speed
Unknown
Apparent Right ascension
Unknown
Apparent Declination
Unknown
Sunlit
N/A
Visualization observer readout
Local Sidereal Time
21:29:54
Azimuth
Unknown
Elevation
Unknown
Doppler factor
Unknown
Orbital elements
Apogee altitude
660.373 km
Perigee altitude
567.993 km
Semi-major axis
6,992.32 km
Eccentricity
0.00661
Inclination
98.8118°
RAAN
282.1042°
Arg. of periapsis
240.7716°
True anomaly
119.34931°
Mean anomaly
118.6879°
Eccentric anomaly
119.01887°
Mean motion
3.71203 °/min
Orbital period
96.98 mins
BSTAR
0.0017592
Loading maneuver chart data...
Computing Atmospheric mass density...
Loading historical data...
Loading historical data...
Loading historical data...
Loading historical data...
Loading historical data...
Loading historical data...
Loading historical data...

Documentation

Showing up to 5 results
|